Weather History for Holloman AFB, NM

Change the Weather History Date:

Friday, February 1, 2013

  Actual Average Record
Temperature  
Mean Temperature 40 °F -  
Max Temperature 61 °F 55 °F 71 °F (2003)
Min Temperature 19 °F 27 °F 13 °F (2011)
Degree Days  
Heating Degree Days 25    
Moisture  
Dew Point 10 °F    
Average Humidity 32    
Maximum Humidity 54    
Minimum Humidity 15    
Precipitation  
Precipitation 0.00 in - - ()
Sea Level Pressure  
Sea Level Pressure 30.19 in    
Wind  
Wind Speed 3 mph (NE)    
Max Wind Speed 9 mph    
Max Gust Speed -    
Visibility 10 miles    
Events      
Averages and records for this station are not official NWS values.
T = Trace of Precipitation, MM = Missing Value Source: NWS Daily Summary

Daily Weather History Graph

Daily Weather History Graph

Search for Another Location

Airport:

Trip Planner

Search our weather history database for the weather conditions in past years. The results will help you decide how hot, cold, wet, or windy it might be!

Date:

Astronomy

Feb. 01, 2013 Rise Set
Actual Time 6:59 AM MST 5:37 PM MST
Civil Twilight 6:33 AM MST 6:03 PM MST
Nautical Twilight 6:03 AM MST 6:32 PM MST
Astronomical Twilight 5:34 AM MST 7:01 PM MST
Moon 11:23 PM MST (2/1) 9:55 AM MST (2/1)
Length of Visible Light 11h 29m
Length of Day
10h 38m
Waning Gibbous, 69% of the Moon is Illuminated
Feb 1
Waning Gibbous
Feb 3
Last Quarter
Feb 10
New
Feb 17
First Quarter
Feb 25
Full

Hourly Weather History & Observations

Time (MST) Temp. Windchill Dew Point Humidity Pressure Visibility Wind Dir Wind Speed Gust Speed Precip Events Conditions
12:58 AM 28.0 °F 24.2 °F 9.3 °F 45% 30.19 in 10.0 mi NE 3.5 mph - N/A   Clear
1:58 AM 25.3 °F 19.7 °F 7.2 °F 46% 30.22 in 10.0 mi NNE 4.6 mph - N/A   Clear
2:58 AM 25.0 °F - 7.5 °F 48% 30.22 in 10.0 mi NE 1.2 mph - N/A   Clear
3:58 AM 25.3 °F - 6.6 °F 45% 30.19 in 10.0 mi Calm Calm - N/A   Clear
4:58 AM 20.3 °F - 3.6 °F 48% 30.21 in 10.0 mi Calm Calm - N/A   Clear
5:58 AM 20.3 °F 15.4 °F 4.1 °F 50% 30.23 in 10.0 mi NNW 3.5 mph - N/A   Clear
6:58 AM 19.0 °F - 4.8 °F 54% 30.26 in 10.0 mi NE 2.3 mph - N/A   Clear
7:58 AM 27.3 °F - 9.3 °F 47% 30.26 in 10.0 mi Calm Calm - N/A   Clear
8:58 AM 38.1 °F 34.6 °F 11.7 °F 34% 30.25 in 10.0 mi South 4.6 mph - N/A   Clear
9:58 AM 40.5 °F - 14.2 °F 34% 30.25 in 10.0 mi SE 2.3 mph - N/A   Clear
10:58 AM 48.4 °F - 16.2 °F 28% 30.22 in 10.0 mi South 3.5 mph - N/A   Clear
11:58 AM 54.0 °F - 16.9 °F 23% 30.19 in 10.0 mi Variable 2.3 mph - N/A   Clear
12:58 PM 55.9 °F - 13.6 °F 19% 30.15 in 10.0 mi Variable 2.3 mph - N/A   Clear
1:58 PM 59.7 °F - 13.6 °F 16% 30.12 in 10.0 mi Variable 4.6 mph - N/A   Clear
2:58 PM 60.8 °F - 13.1 °F 15% 30.11 in 10.0 mi West 5.8 mph - N/A   Clear
3:58 PM 61.0 °F - 13.1 °F 15% 30.11 in 10.0 mi WSW 5.8 mph - N/A   Clear
4:58 PM 59.4 °F - 13.3 °F 16% 30.12 in 10.0 mi West 3.5 mph - N/A   Clear
5:58 PM 54.7 °F - 12.2 °F 19% 30.14 in 10.0 mi North 3.5 mph - N/A   Clear
6:58 PM 45.3 °F 44.0 °F 9.1 °F 23% 30.19 in 10.0 mi NNE 3.5 mph - N/A   Clear
7:58 PM 40.5 °F 36.5 °F 7.2 °F 25% 30.19 in 10.0 mi ENE 5.8 mph - N/A   Clear
8:58 PM 35.2 °F 28.1 °F 4.6 °F 28% 30.19 in 10.0 mi NE 9.2 mph - N/A   Clear
9:58 PM 36.3 °F 30.1 °F 6.3 °F 29% 30.19 in 10.0 mi ENE 8.1 mph - N/A   Clear
10:58 PM 34.0 °F 27.2 °F 5.7 °F 31% 30.17 in 10.0 mi NE 8.1 mph - N/A   Clear
11:58 PM 34.3 °F 30.2 °F 6.6 °F 31% 30.17 in 10.0 mi Variable 4.6 mph - N/A   Clear